Time[GMT],air_temperature[C](-3m),wind_speed[m/s](-4m),wind_gust[m/s](-4m),wind_direction[degrees](-4m),visibility[m](-3m)
2003-10-10 20:00,12.7,2.2,2.7, 81,2562
2003-10-10 21:00,12.6,2.3,2.8, 86,2619
2003-10-10 22:00,12.4,2.7,3.1,116,2615
2003-10-10 23:00,12.1,2.4,2.7, 92,2439
2003-10-11 00:00,11.7,2.7,3.1, 75,2357
2003-10-11 01:00,11.9,4.1,4.9, 63,2226
2003-10-11 02:00,11.9,2.4,3.3, 93,2075
2003-10-11 03:00,11.5,2.6,3.4, 52, 946
2003-10-11 04:00,10.7,2.1,3.2, 38, 332
2003-10-11 05:00,10.3,3.4,4.0, 25, 351
2003-10-11 06:00,9.7,3.9,4.7, 21, 275
2003-10-11 07:00,9.4,3.9,4.6, 37, 359
2003-10-11 08:00,9.4,4.0,5.1, 40,1036
2003-10-11 09:00,9.4,3.5,4.2, 40, 654
2003-10-11 10:00,9.5,4.1,4.8, 46, 535
2003-10-11 11:00,9.9,4.1,4.8, 40,2134
2003-10-11 12:00,10.9,3.4,4.1, 48,2431
2003-10-11 13:00,11.2,3.3,3.7, 56,2420
2003-10-11 14:00,11.7,2.9,3.7, 62, 827
2003-10-11 15:00,11.8,3.3,4.0, 38,2428
2003-10-11 16:00,13.0,1.4,2.5, 89,2576
2003-10-11 17:00,12.8,0.9,1.5, 89,2631
2003-10-11 18:00,13.3,1.9,2.4,140,2661
2003-10-11 19:00,12.4,2.1,2.8,170,2318
2003-10-11 20:00,13.1,0.7,1.7,228, 776
2003-10-11 21:00,13.8,0.4,0.9,260, 637
2003-10-11 22:00,12.6,2.0,2.8,  6,1636
2003-10-11 23:00,12.5,0.9,1.7,  2,2465
2003-10-12 00:00,12.7,1.5,2.2, 27,2446
2003-10-12 01:00,12.6,0.1,0.8,178,2473
2003-10-12 02:00,12.4,1.9,2.5, 20,2391
2003-10-12 03:00,12.3,1.6,2.3, 28,2350
2003-10-12 04:00,12.0,1.5,2.3, 42,1992
2003-10-12 05:00,12.2,2.4,3.0, 23,2022
2003-10-12 06:00,12.1,2.9,3.7, 23,2188
2003-10-12 07:00,12.2,3.1,3.6, 34,2181
2003-10-12 08:00,11.8,3.9,4.6, 34,2172
2003-10-12 09:00,11.8,3.9,4.6, 37,2084
2003-10-12 10:00,11.9,4.4,4.9, 44,2038
2003-10-12 11:00,11.9,5.1,5.8, 40,2021
2003-10-12 12:00,11.8,6.0,7.1, 40,2129
2003-10-12 13:00,11.9,6.1,7.2, 44,2310
2003-10-12 14:00,12.4,5.5,6.6, 55,2326
2003-10-12 15:00,12.7,6.1,7.6, 54,2356
2003-10-12 16:00,13.0,7.6,9.0, 52,2449
2003-10-12 17:00,12.8,8.8,10.5, 71,2388
2003-10-12 18:00,12.2,8.4,10.0, 56,1905
2003-10-12 19:00,12.1,9.0,10.5, 45,1628
2003-10-12 20:00,12.2,9.6,11.1, 42,2015
2003-10-12 21:00,12.4,9.0,10.4, 43,1231
2003-10-12 22:00,12.6,8.6,9.9, 49,1456
2003-10-12 23:00,12.9,7.4,8.8, 27,1589
2003-10-13 00:00,13.2,6.8,7.8, 21,2486
2003-10-13 01:00,13.2,6.0,7.0, 22,2022
2003-10-13 02:00,13.6,6.4,8.0, 45,2649
2003-10-13 03:00,13.5,4.7,6.8,  3,2504
2003-10-13 04:00,13.6,4.1,5.0,356,2492
2003-10-13 05:00,13.7,5.3,6.3,335,2415
2003-10-13 06:00,13.9,4.7,5.4,349,2715
2003-10-13 07:00,13.6,4.1,4.8,338,2686
2003-10-13 08:00,13.4,4.1,5.1,326,2715
2003-10-13 09:00,13.4,4.4,5.0,331,2665
2003-10-13 10:00,13.1,3.3,3.9,320,2609
2003-10-13 11:00,12.8,5.7,7.0,323,2649
2003-10-13 12:00,12.4,5.4,6.4,325,2715
2003-10-13 13:00,12.3,4.6,5.4,332,2704
2003-10-13 14:00,12.9,3.5,4.1,331,2746
2003-10-13 15:00,14.0,1.9,2.3,316,2758
2003-10-13 16:00,14.5,1.4,2.0,349,2811
2003-10-13 17:00,15.2,1.5,2.6,195,2893
2003-10-13 18:00,14.3,3.7,4.5,217,2710
2003-10-13 19:00,16.5,5.0,5.6,313,2445
2003-10-13 20:00,16.6,6.7,7.4,308,1037
2003-10-13 21:00,16.6,7.1,9.4,309,1492
2003-10-13 22:00,15.5,5.4,6.0,308,2726
2003-10-13 23:00,14.5,3.9,4.4,302,2742
2003-10-14 00:00,14.1,3.7,4.2,314,2751
2003-10-14 01:00,13.6,4.6,5.8,357,2737
2003-10-14 02:00,12.9,1.1,3.6,331,2735
2003-10-14 03:00,12.6,3.1,3.6,332,2738
2003-10-14 04:00,12.1,2.1,2.7,335,2737
2003-10-14 05:00,11.9,1.9,2.3,324,2719
2003-10-14 06:00,11.9,2.1,2.6,341,2715
2003-10-14 07:00,11.5,2.6,2.9,345,2733
2003-10-14 08:00,11.4,2.7,3.1,330,2709
2003-10-14 09:00,11.1,2.2,2.8,347,2713
2003-10-14 10:00,10.8,1.5,2.0,342,2700
2003-10-14 11:00,10.7,2.7,3.1,350,2702
2003-10-14 12:00,10.9,2.6,3.0, 12,2708
2003-10-14 13:00,10.8,2.1,2.5,  5,2720
2003-10-14 14:00,11.2,1.1,1.7,  5,2715
2003-10-14 15:00,13.1,0.8,1.2,357,2761
2003-10-14 16:00,13.6,0.3,0.6, 54,2821
2003-10-14 17:00,,,,,
2003-10-14 18:00,13.0,1.8,2.2,165,2710
2003-10-14 19:00,12.9,3.8,4.4,153,2676
2003-10-14 20:00,12.8,4.7,5.4,146,2634
2003-10-14 21:00,12.7,5.0,6.0,143,2644
2003-10-14 22:00,12.7,5.0,6.0,149,2645
2003-10-14 23:00,12.8,5.3,6.2,146,2644
2003-10-15 00:00,12.9,5.5,6.2,153,2646
2003-10-15 01:00,13.0,4.9,6.3,165,2625
2003-10-15 02:00,13.2,6.0,7.1,158,2610
2003-10-15 03:00,13.3,7.0,9.1,149,2616
2003-10-15 04:00,13.3,8.1,9.9,142,2581
2003-10-15 05:00,13.2,9.4,11.0,137,2549
2003-10-15 06:00,,,,,
2003-10-15 07:00,13.3,11.3,13.6,132,2504
2003-10-15 08:00,12.9,11.2,13.8,124,1472
2003-10-15 09:00,,,,,
2003-10-15 10:00,13.5,13.3,15.8,137, 767
2003-10-15 11:00,13.7,13.8,17.2,134, 817
2003-10-15 12:00,14.3,15.1,18.4,148, 541
2003-10-15 13:00,15.1,14.8,18.2,172,1976
2003-10-15 14:00,14.2,12.1,15.1,204,2128
2003-10-15 15:00,13.8,9.9,11.9,217,2547
2003-10-15 16:00,13.6,8.4,9.7,212,2443
2003-10-15 17:00,14.1,9.3,10.9,228,2458
2003-10-15 18:00,,,,,
2003-10-15 19:00,14.4,12.6,15.9,264,2593
2003-10-15 20:00,14.3,12.4,17.3,270,2619
2003-10-15 21:00,14.1,14.0,17.0,269,2551
2003-10-15 22:00,13.2,15.5,19.7,275,2400
2003-10-15 23:00,12.1,15.0,19.8,280,2352
2003-10-16 00:00,12.0,12.5,16.8,283,2643
2003-10-16 01:00,11.7,12.7,15.2,281,2663
2003-10-16 02:00,11.5,12.5,15.2,281,2680
2003-10-16 03:00,11.4,12.2,15.9,284,2656
2003-10-16 04:00,11.3,11.5,15.2,279,2706
2003-10-16 05:00,11.1,12.5,15.8,283,2689
2003-10-16 06:00,10.8,9.7,12.5,287,2727
2003-10-16 07:00,10.4,10.9,13.1,282,2726
2003-10-16 08:00,10.0,9.4,11.4,288,2725
2003-10-16 09:00,9.8,9.9,12.1,280,2730
2003-10-16 10:00,9.4,8.4,9.9,264,2739
2003-10-16 11:00,9.0,8.8,9.9,251,2715
2003-10-16 12:00,8.8,9.6,11.6,263,2726
2003-10-16 13:00,8.9,9.1,10.6,262,2660
2003-10-16 14:00,9.5,8.4,9.5,249,2668
2003-10-16 15:00,10.6,8.7,10.5,261,2489
2003-10-16 16:00,11.2,7.4,9.0,255,2712
2003-10-16 17:00,11.8,7.9,9.1,250,2710
2003-10-16 18:00,12.4,7.8,9.8,263,2730
2003-10-16 19:00,13.1,10.5,12.8,282,2512
2003-10-16 20:00,12.9,7.7,11.0,296,2687
2003-10-16 21:00,13.1,8.3,10.5,290,2632
2003-10-16 22:00,12.6,6.2,7.8,284,2749
2003-10-16 23:00,12.2,6.3,8.8,280,2761
2003-10-17 00:00,11.8,6.1,7.2,280,2774
2003-10-17 01:00,11.4,5.7,7.1,262,2762
2003-10-17 02:00,11.0,7.5,9.1,270,2744
2003-10-17 03:00,10.6,7.3,8.9,265,2739
2003-10-17 04:00,10.2,6.9,8.2,275,2754
2003-10-17 05:00,9.9,6.6,7.6,258,2746
2003-10-17 06:00,9.7,6.5,7.6,267,2746
2003-10-17 07:00,9.3,7.4,8.7,266,2762
2003-10-17 08:00,8.9,7.5,8.6,265,2742
2003-10-17 09:00,8.3,7.4,8.5,278,2731
2003-10-17 10:00,7.8,6.9,8.0,289,2724
2003-10-17 11:00,7.6,7.1,8.2,287,2698
2003-10-17 12:00,7.1,6.3,7.3,307,2698
2003-10-17 13:00,7.7,5.4,6.0,308,2728
2003-10-17 14:00,8.9,5.2,6.2,308,2757
2003-10-17 15:00,9.3,3.7,4.5,287,2750
2003-10-17 16:00,9.3,4.7,5.4,220,2723
2003-10-17 17:00,,,,,
2003-10-17 18:00,10.7,3.5,5.1,225,2736
2003-10-17 19:00,11.4,3.2,4.1,289,2772
2003-10-17 20:00,11.6,6.2,7.6,275,2749
2003-10-17 21:00,11.6,4.7,5.9,284,2763
2003-10-17 22:00,11.3,2.5,3.2,272,2761
2003-10-17 23:00,11.2,2.9,3.3,274,2780
2003-10-18 00:00,10.9,2.2,2.7,251,2777
2003-10-18 01:00,11.0,3.0,3.6,273,2786
2003-10-18 02:00,10.7,3.0,3.6,280,2774
2003-10-18 03:00,10.4,2.6,3.0,299,2763
2003-10-18 04:00,9.9,1.8,2.3,264,2767
2003-10-18 05:00,10.6,3.8,5.2,231,2761
2003-10-18 06:00,9.8,3.6,5.3,300,2716
2003-10-18 07:00,9.3,2.9,3.9,249,2740
2003-10-18 08:00,9.1,3.8,4.5,197,2766
2003-10-18 09:00,9.0,2.9,4.2,212,2754
2003-10-18 10:00,8.4,5.9,7.4,267,2723
2003-10-18 11:00,8.7,6.3,7.1,247,2735
2003-10-18 12:00,8.4,5.4,6.3,260,2744
2003-10-18 13:00,7.7,4.2,5.0,290,2706
2003-10-18 14:00,7.5,2.6,3.6,358,2655
2003-10-18 15:00,7.9,3.8,4.5, 46,2704
2003-10-18 16:00,8.5,4.4,5.4, 48,2715
2003-10-18 17:00,8.3,4.2,5.0, 58,2689
2003-10-18 18:00,8.7,3.3,4.8, 70,2749
2003-10-18 19:00,8.6,3.8,4.8, 83,2718
2003-10-18 20:00,8.6,2.9,3.8,102,2704
2003-10-18 21:00,8.7,3.1,4.6,121,2748
2003-10-18 22:00,8.8,3.0,4.0,128,2746
2003-10-18 23:00,8.8,2.9,3.6,120,2764
2003-10-19 00:00,8.9,2.4,3.2,153,2766
2003-10-19 01:00,8.5,3.5,4.0,227,2590
2003-10-19 02:00,8.4,4.4,5.1,178,2769
2003-10-19 03:00,8.3,3.8,4.5,171,2757
2003-10-19 04:00,8.6,3.0,4.0,175,2758
2003-10-19 05:00,7.8,5.1,5.9,330,2685
2003-10-19 06:00,7.0,4.9,6.1,318,2739
2003-10-19 07:00,,,,,
2003-10-19 08:00,6.0,6.4,7.6,319,2698
2003-10-19 09:00,5.9,6.0,7.4,340,2703
2003-10-19 10:00,4.7,6.8,8.0,326,2686
2003-10-19 11:00,4.6,6.4,7.5,313,2706
2003-10-19 12:00,4.6,6.7,8.0,342,2677
2003-10-19 13:00,5.4,6.5,7.7,  2,2667
2003-10-19 14:00,5.9,6.0,7.2, 20,2678
2003-10-19 15:00,6.2,5.6,7.4, 29,2673
2003-10-19 16:00,6.4,5.2,6.5, 33,2721
2003-10-19 17:00,6.4,5.2,7.1, 60,2682
2003-10-19 18:00,6.7,5.3,6.5, 75,2723
2003-10-19 19:00,6.8,4.2,5.1, 90,2694
2003-10-19 20:00,7.1,3.1,4.3, 92,2739
2003-10-19 21:00,7.5,2.6,3.5, 91,2697
2003-10-19 22:00,7.5,2.0,2.9, 66,2734
2003-10-19 23:00,7.7,1.1,2.2,358,2768
2003-10-20 00:00,7.9,3.0,4.0,299,2739
2003-10-20 01:00,7.9,4.0,5.0,304,2755
2003-10-20 02:00,7.8,5.4,6.6,349,2734
2003-10-20 03:00,7.6,5.6,7.5,354,2736
2003-10-20 04:00,6.7,5.9,7.1,357,2749
2003-10-20 05:00,6.4,4.8,6.0, 10,2745
2003-10-20 06:00,6.0,5.5,6.7,356,2742
2003-10-20 07:00,5.7,4.8,6.0,355,2755
2003-10-20 08:00,5.8,4.0,5.1,356,2739
2003-10-20 09:00,5.5,3.0,4.5,353,2746
2003-10-20 10:00,5.4,4.4,5.3,313,2749
2003-10-20 11:00,4.9,4.0,4.9,302,2748
2003-10-20 12:00,4.8,3.3,4.2,304,2729
2003-10-20 13:00,4.8,1.9,2.4,273,2728
2003-10-20 14:00,5.5,2.7,4.3,277,2723
2003-10-20 15:00,5.9,4.9,5.8,269,2724
2003-10-20 16:00,6.8,5.2,6.5,269,2762
2003-10-20 17:00,7.8,5.8,6.6,259,2731
2003-10-20 18:00,8.6,5.5,6.8,257,2673
2003-10-20 19:00,9.4,5.6,6.6,263,2634
2003-10-20 20:00,9.9,6.4,8.0,255,2722
2003-10-20 21:00,10.2,5.1,7.0,267,2653
2003-10-20 22:00,10.1,6.0,7.1,261,2756
2003-10-20 23:00,10.0,4.5,5.5,253,2771
2003-10-21 00:00,9.9,2.9,3.4,254,2762
2003-10-21 01:00,9.7,6.0,7.0,250,2756
2003-10-21 02:00,8.9,4.5,5.3,261,2734
2003-10-21 03:00,9.1,4.9,5.8,245,2728
2003-10-21 04:00,10.1,8.4,9.7,221,2707
2003-10-21 05:00,10.2,8.3,9.8,218,2664
2003-10-21 06:00,10.4,10.1,11.7,205,2567
2003-10-21 07:00,10.9,10.6,12.6,204,2533
2003-10-21 08:00,11.3,10.6,12.7,209,2441
2003-10-21 09:00,11.3,7.7,11.0,230,2402
2003-10-21 10:00,10.9,3.6,5.9,236,2176
2003-10-21 11:00,11.3,4.2,4.8,203,2173
2003-10-21 12:00,11.6,5.9,7.0,198,2197
2003-10-21 13:00,12.2,6.6,7.9,225,2304
2003-10-21 14:00,11.9,6.7,8.1,202,2116
2003-10-21 15:00,12.3,7.9,9.1,213,2206
2003-10-21 16:00,12.7,7.9,9.5,216,2284
2003-10-21 17:00,12.0,5.9,7.4,222,2009
2003-10-21 18:00,12.0,4.2,5.3,226,1878
2003-10-21 19:00,12.6,6.4,7.8,215,1331
2003-10-21 20:00,12.6,6.5,7.1,211,2264
2003-10-21 21:00,12.6,7.7,8.7,214,2277
2003-10-21 22:00,12.7,6.2,8.6,265, 753
2003-10-21 23:00,11.8,2.2,4.6, 69,2310
2003-10-22 00:00,11.9,2.9,3.6,331,2643
2003-10-22 01:00,9.6,7.3,8.4, 50,2058
2003-10-22 02:00,8.2,8.0,9.4, 47,2184
2003-10-22 03:00,7.6,7.8,9.4, 44,2695
2003-10-22 04:00,7.4,7.5,8.9, 49,2705
2003-10-22 05:00,7.1,8.3,10.0, 41,2728
2003-10-22 06:00,6.8,9.9,11.4, 43,2713
2003-10-22 07:00,6.2,9.5,11.3, 49,2718
2003-10-22 08:00,6.0,10.3,12.2, 45,2721
2003-10-22 09:00,5.7,9.7,11.5, 46,2709
2003-10-22 10:00,5.5,9.9,11.5, 44,2703
2003-10-22 11:00,5.4,8.4,10.3, 45,2680
2003-10-22 12:00,5.2,8.1,10.1, 35,2710
2003-10-22 13:00,5.0,8.7,10.3, 32,2710
2003-10-22 14:00,5.1,8.5,10.4, 38,2692
2003-10-22 15:00,5.0,8.9,11.4, 33,2696
2003-10-22 16:00,5.1,7.7,9.1, 27,2702
2003-10-22 17:00,4.9,7.0,8.9, 35,2755
2003-10-22 18:00,5.2,6.9,8.9, 21,2735
2003-10-22 19:00,5.4,6.5,8.1, 17,2744
2003-10-22 20:00,5.8,7.1,8.6, 36,2755
2003-10-22 21:00,5.9,7.3,9.4, 23,2750
2003-10-22 22:00,5.6,8.1,10.1, 20,2745
2003-10-22 23:00,5.5,7.8,10.1, 27,2741
2003-10-23 00:00,4.8,10.5,12.9, 22,2706
2003-10-23 01:00,4.5,9.4,11.6, 26,2710
2003-10-23 02:00,4.5,9.3,11.8, 21,2734
2003-10-23 03:00,4.3,8.2,10.2, 14,2750
2003-10-23 04:00,3.6,8.6,10.5,  0,2727
2003-10-23 05:00,3.6,7.6,9.0,353,2650
2003-10-23 06:00,3.4,9.0,11.0,  5,2148
2003-10-23 07:00,3.5,8.4,11.0,  2,2676
2003-10-23 08:00,3.3,8.4,10.7,351,2232
2003-10-23 09:00,3.2,8.0,9.6,356,2357
2003-10-23 10:00,3.2,7.6,9.3,348,2289
2003-10-23 11:00,3.2,7.5,9.5,348,2607
2003-10-23 12:00,3.1,9.3,12.0,347,2297
2003-10-23 13:00,3.0,8.8,12.3,343,2226
2003-10-23 14:00,3.0,8.3,10.4,335,2511
2003-10-23 15:00,3.1,8.8,10.7,343,2612
2003-10-23 16:00,2.9,8.1,10.2,343,2263
2003-10-23 17:00,3.4,7.5,9.7,335,2599
2003-10-23 18:00,3.4,6.7,8.6,318,2289
2003-10-23 19:00,3.4,5.2,6.1,291,2674
2003-10-23 20:00,4.2,7.9,9.7,304,2423
2003-10-23 21:00,4.4,9.0,10.6,316,2721
2003-10-23 22:00,4.8,9.5,11.6,314,2727
2003-10-23 23:00,4.8,8.2,10.2,306,2740
2003-10-24 00:00,4.4,8.5,10.2,298,2750
2003-10-24 01:00,4.0,9.2,11.1,297,2728
2003-10-24 02:00,4.0,9.2,11.1,296,2752
2003-10-24 03:00,3.8,10.3,12.4,288,2736
2003-10-24 04:00,3.9,9.4,11.3,291,2752
2003-10-24 05:00,3.9,8.9,10.6,285,2755
2003-10-24 06:00,3.9,10.0,12.0,288,2761
2003-10-24 07:00,3.8,10.3,11.7,284,2758
2003-10-24 08:00,3.5,8.8,10.8,278,2767
2003-10-24 09:00,3.5,9.0,10.5,274,2745
2003-10-24 10:00,3.4,9.2,11.4,271,2764
2003-10-24 11:00,3.4,9.5,11.2,275,2724
2003-10-24 12:00,3.4,9.6,11.2,279,2752
2003-10-24 13:00,3.7,9.2,11.1,280,2694
2003-10-24 14:00,3.9,8.2,10.2,293,2715
2003-10-24 15:00,4.7,7.6,9.5,297,2715
2003-10-24 16:00,5.3,6.4,8.3,317,2715
2003-10-24 17:00,5.7,7.3,9.3,310,2771
2003-10-24 18:00,6.1,8.6,11.6,306,2699
2003-10-24 19:00,6.5,7.9,9.2,306,2749
2003-10-24 20:00,6.7,9.3,11.1,308,1641
2003-10-24 21:00,6.9,8.1,10.3,317,2700
2003-10-24 22:00,6.6,8.7,10.5,326,2764
2003-10-24 23:00,6.4,9.5,11.5,321,2764
2003-10-25 00:00,6.2,8.4,10.3,325,2767
2003-10-25 01:00,5.8,6.9,7.8,343,2764
2003-10-25 02:00,5.5,4.6,6.0, 10,2784
2003-10-25 03:00,5.3,3.5,4.6,320,2774
2003-10-25 04:00,5.7,3.9,4.7,302,2780
2003-10-25 05:00,6.0,4.5,5.7,293,2801
2003-10-25 06:00,5.5,5.4,6.3,283,2777
2003-10-25 07:00,5.2,5.7,6.5,298,2786
2003-10-25 08:00,5.2,4.6,5.3,293,2786
2003-10-25 09:00,4.9,3.7,4.5,297,2778
2003-10-25 10:00,4.7,4.8,6.0,282,2768
2003-10-25 11:00,4.6,3.7,4.7,286,2765
2003-10-25 12:00,5.5,3.7,4.5,272,2727
2003-10-25 13:00,5.9,2.6,3.5,241,2780
2003-10-25 14:00,5.9,3.6,4.7,232,2742
2003-10-25 15:00,6.4,3.5,4.8,255,2602
2003-10-25 16:00,7.3,5.9,7.3,226,2667
2003-10-25 17:00,7.7,5.6,6.9,218,2729
2003-10-25 18:00,8.3,7.8,8.9,202,2171
2003-10-25 19:00,8.6,8.4,9.5,201,2775
2003-10-25 20:00,9.2,8.6,10.5,194,2542
2003-10-25 21:00,9.8,9.2,10.7,197,2688
2003-10-25 22:00,10.2,10.0,12.1,198,2659
2003-10-25 23:00,10.4,9.1,10.7,206,2666
2003-10-26 00:00,10.4,9.6,11.4,212,2659
2003-10-26 01:00,10.3,9.5,11.1,214,2674
2003-10-26 02:00,10.3,7.5,9.2,217,2688
2003-10-26 03:00,10.3,7.6,8.9,212,2689
2003-10-26 04:00,10.3,7.2,8.7,215,2667
2003-10-26 05:00,10.2,6.1,7.2,221,2644
2003-10-26 06:00,10.2,5.8,7.0,230,2612
2003-10-26 07:00,,,,,
2003-10-26 08:00,10.1,5.0,5.7,215,2543
2003-10-26 09:00,10.2,3.7,4.4,215,2564
2003-10-26 10:00,10.1,2.1,2.9,204,2551
2003-10-26 11:00,10.0,2.7,3.3,151,2014
2003-10-26 12:00,10.7,5.1,5.8,196,2391
2003-10-26 13:00,11.1,8.5,10.0,197,2327
2003-10-26 14:00,10.9,7.4,8.6,197,2244
2003-10-26 15:00,11.4,8.7,10.3,201,2264
2003-10-26 16:00,11.6,9.4,10.5,201,2316
2003-10-26 17:00,11.9,9.8,11.2,201,2248
2003-10-26 18:00,11.9,10.4,12.0,203,2188
2003-10-26 19:00,12.2,10.3,12.6,203,2310
2003-10-26 20:00,12.1,8.6,10.1,210,2389
2003-10-26 21:00,11.8,7.6,8.8,208,2336
2003-10-26 22:00,11.8,7.8,8.7,218,2318
2003-10-26 23:00,11.5,7.6,9.0,204,2284
2003-10-27 00:00,11.8,9.1,10.4,202,2241
2003-10-27 01:00,11.3,7.3,8.4,199,2138
2003-10-27 02:00,11.5,8.8,9.8,195,2238
2003-10-27 03:00,11.6,8.1,9.2,202,2271
2003-10-27 04:00,11.8,10.2,12.1,199,2279
2003-10-27 05:00,11.8,8.7,11.1,202,2239
2003-10-27 06:00,11.6,7.2,8.7,208,2220
2003-10-27 07:00,11.7,8.2,9.6,200,2258
2003-10-27 08:00,,,,,
2003-10-27 09:00,11.6,7.8,9.1,198,1792
2003-10-27 10:00,11.7,7.9,9.1,198,1185
2003-10-27 11:00,12.1,9.1,10.6,201,1110
2003-10-27 12:00,12.1,8.3,9.6,206,1519
2003-10-27 13:00,11.9,9.3,10.8,199,1934
2003-10-27 14:00,11.7,8.5,9.7,192,2117
2003-10-27 15:00,11.6,7.4,8.4,187,2141
2003-10-27 16:00,11.4,6.4,7.2,179,2270
2003-10-27 17:00,11.5,7.1,8.1,189,2305
2003-10-27 18:00,12.1,8.9,10.6,194,2367
2003-10-27 19:00,12.3,8.7,10.2,192,2374
2003-10-27 20:00,12.4,8.9,10.7,193,2350
2003-10-27 21:00,12.4,9.4,11.3,188,2217
2003-10-27 22:00,12.0,8.2,10.0,184,1979
2003-10-27 23:00,12.1,8.6,10.3,182,1839
2003-10-28 00:00,12.5,10.8,12.5,182,2032
2003-10-28 01:00,12.4,10.3,12.9,185,1585
2003-10-28 02:00,13.0,12.2,14.7,190,1412
2003-10-28 03:00,12.0,6.2,10.5,261,1951
2003-10-28 04:00,11.4,6.0,7.1,231,2038
2003-10-28 05:00,11.5,8.1,9.1,205,2330
2003-10-28 06:00,11.6,9.8,11.2,216,2573
2003-10-28 07:00,12.2,11.4,13.9,293,2715
2003-10-28 08:00,10.8,6.8,8.4,278,2740
2003-10-28 09:00,10.4,6.0,7.4,284,2740
2003-10-28 10:00,9.9,5.8,7.2,270,2728
2003-10-28 11:00,9.6,6.5,7.5,261,2703
2003-10-28 12:00,9.3,6.2,7.2,270,2682
2003-10-28 13:00,9.0,4.7,6.0,275,2683
2003-10-28 14:00,9.1,3.8,4.5,267,2679
2003-10-28 15:00,9.6,4.0,4.7,273,2692
2003-10-28 16:00,10.6,1.6,2.8,214,2656
2003-10-28 17:00,10.4,1.8,2.2,192,2694
2003-10-28 18:00,10.3,2.9,3.3,181,2668
2003-10-28 19:00,10.4,3.4,3.8,171,2678
2003-10-28 20:00,10.5,4.4,5.1,148,2736
2003-10-28 21:00,10.3,4.0,4.7,153,2735
2003-10-28 22:00,10.0,3.9,4.7,150,2692
2003-10-28 23:00,10.0,4.4,5.4,144,2688
2003-10-29 00:00,10.1,4.0,5.0,150,2672
2003-10-29 01:00,10.1,4.2,5.0,148,2649
2003-10-29 02:00,10.2,2.3,3.1,143,2641
2003-10-29 03:00,10.2,3.7,4.8,139,2622
2003-10-29 04:00,10.2,3.5,4.3,127,2549
2003-10-29 05:00,10.2,2.9,3.3, 99,2536
2003-10-29 06:00,10.2,4.4,5.1, 91,2452
2003-10-29 07:00,10.2,5.2,6.1, 84,2201
2003-10-29 08:00,10.2,6.1,7.1, 68,1897
2003-10-29 09:00,10.3,6.9,7.7, 72,1854
2003-10-29 10:00,10.2,7.8,8.9, 66,1647
2003-10-29 11:00,10.0,9.2,11.1, 55, 879
2003-10-29 12:00,9.9,10.9,13.0, 63, 764
2003-10-29 13:00,10.0,10.4,12.7, 59,1088
2003-10-29 14:00,10.4,6.0,10.0, 66,1716
2003-10-29 15:00,12.3,3.0,4.3,151, 294
2003-10-29 16:00,13.2,11.4,13.6,174,1308
2003-10-29 17:00,13.1,10.3,12.1,174,1790
2003-10-29 18:00,13.6,12.1,14.9,181,1833
2003-10-29 19:00,,,,,
2003-10-29 20:00,13.4,11.4,13.7,187,1397
2003-10-29 21:00,13.0,10.8,13.3,196,1910
2003-10-29 22:00,12.9,10.9,13.1,224,2071
2003-10-29 23:00,12.2,9.1,11.4,268,2708
2003-10-30 00:00,11.6,7.8,9.2,270,2746
2003-10-30 01:00,11.1,7.4,9.2,279,2739
2003-10-30 02:00,10.9,6.0,7.4,271,2737
2003-10-30 03:00,10.9,6.2,7.9,266,2745
2003-10-30 04:00,10.8,7.2,8.4,270,2717
2003-10-30 05:00,10.5,6.4,7.9,271,2730
2003-10-30 06:00,10.3,6.9,8.2,275,2731
2003-10-30 07:00,10.0,7.3,8.7,280,2731
2003-10-30 08:00,9.8,8.9,11.1,288,2695
2003-10-30 09:00,9.2,8.0,9.2,275,2722
2003-10-30 10:00,8.8,9.3,12.6,267,2682
2003-10-30 11:00,8.4,8.8,10.6,263,2656
2003-10-30 12:00,8.1,10.1,11.6,271,2661
2003-10-30 13:00,8.3,9.2,10.9,273,2669
2003-10-30 14:00,8.8,8.4,10.4,274,2587
2003-10-30 15:00,9.6,7.7,9.2,249,2280
2003-10-30 16:00,10.5,9.9,12.5,287,2512
2003-10-30 17:00,11.0,7.2,9.8,285,2449
2003-10-30 18:00,11.5,7.3,8.7,291,2521
2003-10-30 19:00,11.8,5.1,6.1,299,2021
2003-10-30 20:00,11.7,4.0,4.8,301,2045
2003-10-30 21:00,11.3,2.1,3.0,251,2271
2003-10-30 22:00,11.0,4.0,4.9,273,2727
2003-10-30 23:00,10.8,2.0,3.0,255,2764
2003-10-31 00:00,10.5,3.5,4.2,283,2725
2003-10-31 01:00,10.1,3.4,4.1,284,2736
2003-10-31 02:00,9.8,2.9,4.0,257,2730
2003-10-31 03:00,9.5,3.1,3.7,256,2656
2003-10-31 04:00,9.3,4.2,4.9,261,2679
2003-10-31 05:00,8.9,5.3,6.2,256,2677
2003-10-31 06:00,8.9,3.7,4.6,254,2700
2003-10-31 07:00,8.7,2.6,3.3,269,2700
2003-10-31 08:00,8.4,1.6,2.4,283,2668
2003-10-31 09:00,8.4,1.3,2.2,286,2708
2003-10-31 10:00,8.6,1.8,2.1,226,2677
2003-10-31 11:00,9.0,2.4,2.9,214,2652
2003-10-31 12:00,10.2,2.7,3.4,189,2625
2003-10-31 13:00,9.9,3.2,3.9,217,2677
2003-10-31 14:00,9.2,1.6,2.2,307,2659
2003-10-31 15:00,9.6,0.4,0.9,213,2638
2003-10-31 16:00,10.3,3.0,3.6,211,2601
2003-10-31 17:00,10.6,3.0,3.7,211,2567
2003-10-31 18:00,11.1,7.4,8.4,194,2593
2003-10-31 19:00,11.4,8.2,9.6,191,2596
2003-10-31 20:00,11.6,9.2,10.8,197,2623
2003-10-31 21:00,11.8,9.4,10.8,201,2556
2003-10-31 22:00,11.6,8.9,10.3,201,2560
2003-10-31 23:00,11.5,8.2,9.5,208,2558
2003-11-01 00:00,11.6,8.0,9.1,217,2595
2003-11-01 01:00,11.7,7.6,8.8,218,2576
2003-11-01 02:00,11.5,7.1,7.9,215,2611
2003-11-01 03:00,10.9,7.2,8.5,213,2559
2003-11-01 04:00,11.0,6.8,7.9,223,2558
2003-11-01 05:00,11.2,7.2,8.0,228,2570
2003-11-01 06:00,11.0,7.0,8.1,227,2552
2003-11-01 07:00,11.0,6.1,7.1,232,2508
2003-11-01 08:00,11.0,6.1,6.9,233,2557
2003-11-01 09:00,10.8,5.1,6.0,233,2507
2003-11-01 10:00,10.7,5.7,6.3,244,2464
2003-11-01 11:00,10.6,6.4,7.2,238,2455
2003-11-01 12:00,10.8,6.9,8.1,241,2477
2003-11-01 13:00,10.8,5.6,6.3,241,2459
2003-11-01 14:00,10.7,4.7,5.3,241,2395
2003-11-01 15:00,11.0,5.4,5.9,215,2304
2003-11-01 16:00,11.2,4.8,5.7,206,2348
2003-11-01 17:00,11.8,4.8,5.6,212,2456
2003-11-01 18:00,13.7,5.9,6.5,225,2417
2003-11-01 19:00,12.7,4.8,5.5,215,2474
2003-11-01 20:00,13.4,5.4,6.2,227,2470
2003-11-01 21:00,14.3,5.0,5.8,242,2466
2003-11-01 22:00,13.9,3.9,4.6,254,2444
2003-11-01 23:00,14.1,3.7,4.7,272,2472
2003-11-02 00:00,14.0,2.6,3.5,302,2465
2003-11-02 01:00,13.5,2.4,3.5,304,2455
2003-11-02 02:00,12.4,2.7,3.2,326,2404
2003-11-02 03:00,12.7,4.7,5.4,341,2438
2003-11-02 04:00,12.1,2.8,4.0,351,2512
2003-11-02 05:00,11.7,0.6,1.6, 77,2451
2003-11-02 06:00,12.5,1.9,2.5, 17,2490
2003-11-02 07:00,11.5,1.9,2.2, 67,2462
2003-11-02 08:00,10.7,4.3,4.8, 72,2570
2003-11-02 09:00,10.8,4.7,5.6, 80,2655
2003-11-02 10:00,10.6,4.2,4.9, 73,2653
2003-11-02 11:00,10.4,4.7,6.0, 89,2668
2003-11-02 12:00,10.3,4.4,5.2, 87,2668
2003-11-02 13:00,10.1,3.7,4.5, 80,2673
2003-11-02 14:00,9.9,4.2,5.5, 78,2712
2003-11-02 15:00,9.8,3.6,4.5, 80,2714
2003-11-02 16:00,9.8,3.2,4.0,100,2709
2003-11-02 17:00,9.6,2.4,3.6,108,2693
2003-11-02 18:00,9.5,3.4,4.0,127,2533
2003-11-02 19:00,9.2,1.6,2.9,118,2744
2003-11-02 20:00,9.1,2.4,2.9, 77,2758
2003-11-02 21:00,9.1,3.1,4.0,116,2716
2003-11-02 22:00,9.1,2.6,3.2,125,2734
2003-11-02 23:00,9.2,3.1,4.0,140,2774
2003-11-03 00:00,9.2,4.1,4.8,131,2710
2003-11-03 01:00,9.2,4.9,5.7,148,2742
2003-11-03 02:00,9.3,4.6,5.3,150,2771
2003-11-03 03:00,9.3,4.3,5.2,145,2746
2003-11-03 04:00,9.1,4.8,6.1,151,2381
2003-11-03 05:00,8.9,5.2,6.5,125,2549
2003-11-03 06:00,8.9,5.5,6.7,132,2676
2003-11-03 07:00,8.6,5.8,6.8,135,1710
2003-11-03 08:00,8.8,6.7,7.8,142,2218
2003-11-03 09:00,9.1,6.0,7.2,128,2385
2003-11-03 10:00,9.3,6.8,8.4,133,2585
2003-11-03 11:00,9.6,7.0,8.4,142,2528
2003-11-03 12:00,9.7,6.2,7.2,136,2532
2003-11-03 13:00,9.8,5.8,7.0,132,2503
2003-11-03 14:00,10.1,4.6,5.6,125,2456
2003-11-03 15:00,10.2,2.5,4.0,154,2081
2003-11-03 16:00,10.7,0.2,1.5,155, 457
2003-11-03 17:00,9.7,6.0,6.9, 11,1007
2003-11-03 18:00,9.6,6.0,7.4, 16,1737
2003-11-03 19:00,9.5,5.7,6.6, 29,2620
2003-11-03 20:00,9.3,7.7,8.9, 34,2035
2003-11-03 21:00,9.3,6.0,7.3, 32,2620
2003-11-03 22:00,9.1,5.5,6.7, 47,2682
2003-11-03 23:00,9.1,5.6,6.5, 48,2680
2003-11-04 00:00,9.2,4.9,5.4, 56,2729
2003-11-04 01:00,9.2,1.9,3.4, 47,2690
2003-11-04 02:00,9.3,3.2,3.6, 35,2746
2003-11-04 03:00,9.3,2.6,3.2, 42,2766
2003-11-04 04:00,9.3,4.6,5.6, 11,2631
2003-11-04 05:00,9.1,4.2,4.7, 44,2510
2003-11-04 06:00,9.0,5.3,6.2, 32,2349
2003-11-04 07:00,8.9,5.1,6.0, 24,2074
2003-11-04 08:00,9.1,7.0,9.7, 33,2483
2003-11-04 09:00,8.1,10.4,12.2, 60,2401
2003-11-04 10:00,7.9,9.9,11.4, 52,2242
2003-11-04 11:00,7.0,9.7,11.2, 68,2428
2003-11-04 12:00,7.3,9.1,10.2, 69,2566
2003-11-04 13:00,7.4,9.8,11.4, 59,2670
2003-11-04 14:00,6.8,11.0,13.0, 51,2653
2003-11-04 15:00,6.2,9.4,10.9, 54,2668
2003-11-04 16:00,5.7,9.6,11.7, 61,2248
2003-11-04 17:00,5.8,9.4,11.3, 55,2686
2003-11-04 18:00,5.7,8.5,9.9, 63,2712
2003-11-04 19:00,5.5,8.3,10.4, 69,2730
2003-11-04 20:00,5.4,7.4,8.9, 78,2739
2003-11-04 21:00,5.3,7.2,8.5, 80,2725